Time,TemperatureF,DewpointF,PressureIn,WindDirection,WindDirectionDegrees,WindSpeedMPH,WindSpeedGustMPH,Humidity,HourlyPrecipIn,Conditions,Clouds,dailyrainin,SoftwareType,DateUTC
2013-11-18 00:04:00,43.0,43.0,29.55,East,90,1.0,10.0,100,0.06,,,-99.99,Weather View 32 v70,2013-11-18 05:04:00,
2013-11-18 00:09:00,44.0,44.0,29.55,East,90,1.0,10.0,100,0.06,,,-99.99,Weather View 32 v70,2013-11-18 05:09:00,
2013-11-18 00:14:00,44.0,44.0,29.55,ESE,112,0.0,9.0,100,0.05,,,-99.99,Weather View 32 v70,2013-11-18 05:14:00,
2013-11-18 00:19:00,44.0,44.0,29.55,ESE,112,0.0,9.0,100,0.06,,,-99.99,Weather View 32 v70,2013-11-18 05:19:00,
2013-11-18 00:29:00,44.0,44.0,29.54,East,90,2.0,9.0,100,0.05,,,-99.99,Weather View 32 v70,2013-11-18 05:29:00,
2013-11-18 00:34:00,44.0,44.0,29.53,East,90,5.0,9.0,100,0.05,,,-99.99,Weather View 32 v70,2013-11-18 05:34:00,
2013-11-18 00:39:00,44.0,44.0,29.53,East,90,0.0,9.0,100,0.04,,,-99.99,Weather View 32 v70,2013-11-18 05:39:00,
2013-11-18 00:44:00,44.0,44.0,29.53,East,90,5.0,7.0,100,0.04,,,-99.99,Weather View 32 v70,2013-11-18 05:44:00,
2013-11-18 00:49:00,44.0,44.0,29.52,East,90,2.0,7.0,100,0.04,,,-99.99,Weather View 32 v70,2013-11-18 05:49:00,
2013-11-18 00:59:00,44.0,44.0,29.52,East,90,2.0,7.0,100,0.04,,,-99.99,Weather View 32 v70,2013-11-18 05:59:00,
2013-11-18 01:04:00,44.0,44.0,29.51,ENE,67,6.0,7.0,100,0.03,,,-99.99,Weather View 32 v70,2013-11-18 06:04:00,
2013-11-18 01:09:00,44.0,44.0,29.51,East,90,1.0,7.0,100,0.03,,,-99.99,Weather View 32 v70,2013-11-18 06:09:00,
2013-11-18 01:14:00,44.0,44.0,29.51,East,90,3.0,7.0,100,0.03,,,-99.99,Weather View 32 v70,2013-11-18 06:14:00,
2013-11-18 01:15:00,44.0,44.0,29.51,East,90,3.0,7.0,100,0.03,,,-99.99,Weather View 32 v70,2013-11-18 06:15:00,
2013-11-18 01:24:00,44.0,44.0,29.50,East,90,7.0,7.0,100,0.02,,,-99.99,Weather View 32 v70,2013-11-18 06:24:00,
2013-11-18 01:29:00,45.0,45.0,29.50,East,90,3.0,7.0,100,0.01,,,-99.99,Weather View 32 v70,2013-11-18 06:29:00,
2013-11-18 01:34:00,45.0,45.0,29.49,East,90,3.0,7.0,100,0.01,,,-99.99,Weather View 32 v70,2013-11-18 06:34:00,
2013-11-18 01:39:00,45.0,45.0,29.49,East,90,4.0,7.0,100,0.02,,,-99.99,Weather View 32 v70,2013-11-18 06:39:00,
2013-11-18 01:44:00,45.0,45.0,29.48,East,90,4.0,7.0,100,0.01,,,-99.99,Weather View 32 v70,2013-11-18 06:44:00,
2013-11-18 01:49:00,45.0,45.0,29.47,East,90,3.0,8.0,100,0.01,,,-99.99,Weather View 32 v70,2013-11-18 06:49:00,
2013-11-18 01:54:00,45.0,45.0,29.47,ENE,67,6.0,8.0,100,0.01,,,-99.99,Weather View 32 v70,2013-11-18 06:54:00,
2013-11-18 01:59:00,45.0,45.0,29.47,ENE,67,4.0,8.0,100,0.01,,,-99.99,Weather View 32 v70,2013-11-18 06:59:00,
2013-11-18 02:09:00,46.0,46.0,29.46,East,90,0.0,8.0,100,0.01,,,-99.99,Weather View 32 v70,2013-11-18 07:09:00,
2013-11-18 02:14:00,46.0,46.0,29.45,East,90,6.0,8.0,100,0.01,,,-99.99,Weather View 32 v70,2013-11-18 07:14:00,
2013-11-18 02:19:00,46.0,46.0,29.45,East,90,4.0,8.0,100,0.01,,,-99.99,Weather View 32 v70,2013-11-18 07:19:00,
2013-11-18 02:29:00,46.0,46.0,29.44,East,90,4.0,8.0,100,0.01,,,-99.99,Weather View 32 v70,2013-11-18 07:29:00,
2013-11-18 02:34:00,46.0,46.0,29.43,East,90,5.0,8.0,100,0.01,,,-99.99,Weather View 32 v70,2013-11-18 07:34:00,
2013-11-18 02:39:00,46.0,46.0,29.43,ENE,67,5.0,8.0,100,0.00,,,-99.99,Weather View 32 v70,2013-11-18 07:39:00,
2013-11-18 02:44:00,46.0,46.0,29.43,ENE,67,5.0,8.0,100,0.00,,,-99.99,Weather View 32 v70,2013-11-18 07:44:00,
2013-11-18 02:49:00,46.0,46.0,29.42,East,90,6.0,8.0,100,0.00,,,-99.99,Weather View 32 v70,2013-11-18 07:49:00,
2013-11-18 02:54:00,47.0,47.0,29.42,East,90,6.0,9.0,100,0.00,,,-99.99,Weather View 32 v70,2013-11-18 07:54:00,
2013-11-18 03:04:00,47.0,47.0,29.40,East,90,5.0,9.0,100,0.00,,,-99.99,Weather View 32 v70,2013-11-18 08:04:00,
2013-11-18 03:09:00,47.0,47.0,29.40,ENE,67,6.0,9.0,100,0.00,,,-99.99,Weather View 32 v70,2013-11-18 08:09:00,
2013-11-18 03:14:00,47.0,47.0,29.40,East,90,6.0,9.0,100,0.00,,,-99.99,Weather View 32 v70,2013-11-18 08:14:00,
2013-11-18 03:19:00,47.0,47.0,29.40,ESE,112,5.0,9.0,100,0.00,,,-99.99,Weather View 32 v70,2013-11-18 08:19:00,
2013-11-18 03:24:00,47.0,47.0,29.38,East,90,6.0,9.0,100,0.00,,,-99.99,Weather View 32 v70,2013-11-18 08:24:00,
2013-11-18 03:34:00,47.0,47.0,29.38,East,90,5.0,9.0,100,0.01,,,-99.99,Weather View 32 v70,2013-11-18 08:34:00,
2013-11-18 03:39:00,47.0,47.0,29.37,East,90,4.0,9.0,100,0.01,,,-99.99,Weather View 32 v70,2013-11-18 08:39:00,
2013-11-18 03:44:00,47.0,47.0,29.37,ESE,112,3.0,9.0,100,0.01,,,-99.99,Weather View 32 v70,2013-11-18 08:44:00,
2013-11-18 03:49:00,48.0,48.0,29.36,East,90,0.0,9.0,100,0.01,,,-99.99,Weather View 32 v70,2013-11-18 08:49:00,
2013-11-18 03:54:00,48.0,48.0,29.36,East,90,6.0,9.0,100,0.01,,,-99.99,Weather View 32 v70,2013-11-18 08:54:00,
2013-11-18 04:04:00,48.0,48.0,29.36,East,90,3.0,9.0,100,0.01,,,-99.99,Weather View 32 v70,2013-11-18 09:04:00,
2013-11-18 04:09:00,48.0,48.0,29.35,East,90,1.0,9.0,100,0.01,,,-99.99,Weather View 32 v70,2013-11-18 09:09:00,
2013-11-18 04:14:00,48.0,48.0,29.34,East,90,3.0,9.0,100,0.01,,,-99.99,Weather View 32 v70,2013-11-18 09:14:00,
2013-11-18 04:19:00,48.0,48.0,29.34,East,90,3.0,9.0,100,0.01,,,-99.99,Weather View 32 v70,2013-11-18 09:19:00,
2013-11-18 04:24:00,49.0,49.0,29.34,East,90,4.0,9.0,100,0.01,,,-99.99,Weather View 32 v70,2013-11-18 09:24:00,
2013-11-18 04:34:00,50.0,50.0,29.32,SE,135,0.0,10.0,100,0.01,,,-99.99,Weather View 32 v70,2013-11-18 09:34:00,
2013-11-18 04:39:00,50.0,50.0,29.32,SE,135,7.0,10.0,100,0.01,,,-99.99,Weather View 32 v70,2013-11-18 09:39:00,
2013-11-18 04:44:00,50.0,50.0,29.31,ESE,112,7.0,10.0,100,0.01,,,-99.99,Weather View 32 v70,2013-11-18 09:44:00,
2013-11-18 04:49:00,51.0,51.0,29.30,ESE,112,7.0,12.0,100,0.01,,,-99.99,Weather View 32 v70,2013-11-18 09:49:00,
2013-11-18 04:54:00,51.0,51.0,29.30,ESE,112,2.0,12.0,100,0.01,,,-99.99,Weather View 32 v70,2013-11-18 09:54:00,
2013-11-18 05:04:00,51.0,51.0,29.28,SE,135,5.0,15.0,100,0.01,,,-99.99,Weather View 32 v70,2013-11-18 10:04:00,
2013-11-18 05:09:00,51.0,51.0,29.28,ESE,112,13.0,15.0,100,0.01,,,-99.99,Weather View 32 v70,2013-11-18 10:09:00,
2013-11-18 05:14:00,51.0,51.0,29.27,SE,135,12.0,15.0,100,0.01,,,-99.99,Weather View 32 v70,2013-11-18 10:14:00,
2013-11-18 05:19:00,51.0,51.0,29.27,East,90,8.0,19.0,100,0.01,,,-99.99,Weather View 32 v70,2013-11-18 10:19:00,
2013-11-18 05:29:00,51.0,51.0,29.27,SE,135,8.0,19.0,100,0.01,,,-99.99,Weather View 32 v70,2013-11-18 10:29:00,
2013-11-18 05:39:00,52.0,52.0,29.26,ESE,112,8.0,19.0,100,0.00,,,-99.99,Weather View 32 v70,2013-11-18 10:39:00,
2013-11-18 05:44:00,52.0,52.0,29.26,SE,135,14.0,19.0,100,0.00,,,-99.99,Weather View 32 v70,2013-11-18 10:44:00,
2013-11-18 05:54:00,52.0,52.0,29.24,South,180,3.0,19.0,100,0.00,,,-99.99,Weather View 32 v70,2013-11-18 10:54:00,
2013-11-18 05:59:00,52.0,52.0,29.24,SE,135,12.0,19.0,100,0.00,,,-99.99,Weather View 32 v70,2013-11-18 10:59:00,
2013-11-18 06:04:00,52.0,52.0,29.24,SE,135,7.0,19.0,100,0.00,,,-99.99,Weather View 32 v70,2013-11-18 11:04:00,
2013-11-18 06:09:00,52.0,52.0,29.23,SE,135,9.0,19.0,100,0.00,,,-99.99,Weather View 32 v70,2013-11-18 11:09:00,
2013-11-18 06:14:00,52.0,52.0,29.23,SE,135,4.0,19.0,100,0.00,,,-99.99,Weather View 32 v70,2013-11-18 11:14:00,
2013-11-18 06:19:00,52.0,52.0,29.22,SSE,157,7.0,19.0,100,0.01,,,-99.99,Weather View 32 v70,2013-11-18 11:19:00,
2013-11-18 06:29:00,53.0,53.0,29.22,SE,135,9.0,18.0,100,0.01,,,-99.99,Weather View 32 v70,2013-11-18 11:29:00,
2013-11-18 06:34:00,53.0,53.0,29.21,SSE,157,10.0,18.0,100,0.01,,,-99.99,Weather View 32 v70,2013-11-18 11:34:00,
2013-11-18 06:39:00,53.0,53.0,29.20,SE,135,12.0,18.0,100,0.01,,,-99.99,Weather View 32 v70,2013-11-18 11:39:00,
2013-11-18 06:44:00,53.0,53.0,29.20,SE,135,9.0,17.0,100,0.02,,,-99.99,Weather View 32 v70,2013-11-18 11:44:00,
2013-11-18 06:54:00,53.0,53.0,29.19,East,90,12.0,18.0,100,0.02,,,-99.99,Weather View 32 v70,2013-11-18 11:54:00,
2013-11-18 06:59:00,53.0,53.0,29.19,SE,135,7.0,19.0,100,0.02,,,-99.99,Weather View 32 v70,2013-11-18 11:59:00,
2013-11-18 07:04:00,53.0,53.0,29.18,SE,135,7.0,19.0,100,0.02,,,-99.99,Weather View 32 v70,2013-11-18 12:04:00,
2013-11-18 07:09:00,54.0,54.0,29.18,SSE,157,9.0,19.0,100,0.02,,,-99.99,Weather View 32 v70,2013-11-18 12:09:00,
2013-11-18 07:18:00,53.0,53.0,29.18,SE,135,5.0,19.0,100,0.02,,,-99.99,Weather View 32 v70,2013-11-18 12:18:00,
2013-11-18 07:24:00,54.0,54.0,29.17,SE,135,7.0,19.0,100,0.02,,,-99.99,Weather View 32 v70,2013-11-18 12:24:00,
2013-11-18 07:29:00,54.0,54.0,29.17,ESE,112,7.0,19.0,100,0.02,,,-99.99,Weather View 32 v70,2013-11-18 12:29:00,
2013-11-18 07:34:00,54.0,54.0,29.16,SSE,157,2.0,19.0,100,0.02,,,-99.99,Weather View 32 v70,2013-11-18 12:34:00,
2013-11-18 07:39:00,54.0,54.0,29.16,South,180,4.0,19.0,100,0.02,,,-99.99,Weather View 32 v70,2013-11-18 12:39:00,
2013-11-18 07:49:00,54.0,54.0,29.14,SE,135,7.0,19.0,100,0.03,,,-99.99,Weather View 32 v70,2013-11-18 12:49:00,
2013-11-18 07:54:00,54.0,54.0,29.14,SE,135,9.0,19.0,100,0.07,,,-99.99,Weather View 32 v70,2013-11-18 12:54:00,
2013-11-18 07:59:00,54.0,54.0,29.13,SE,135,8.0,15.0,100,0.10,,,-99.99,Weather View 32 v70,2013-11-18 12:59:00,
2013-11-18 08:04:00,55.0,55.0,29.12,SE,135,8.0,17.0,100,0.11,,,-99.99,Weather View 32 v70,2013-11-18 13:04:00,
2013-11-18 08:09:00,55.0,55.0,29.12,South,180,14.0,17.0,100,0.13,,,-99.99,Weather View 32 v70,2013-11-18 13:09:00,
2013-11-18 08:19:00,55.0,55.0,29.10,SE,135,8.0,17.0,100,0.15,,,-99.99,Weather View 32 v70,2013-11-18 13:19:00,
2013-11-18 08:24:00,55.0,55.0,29.10,SE,135,9.0,17.0,100,0.20,,,-99.99,Weather View 32 v70,2013-11-18 13:24:00,
2013-11-18 08:29:00,55.0,55.0,29.08,ESE,112,11.0,17.0,100,0.24,,,-99.99,Weather View 32 v70,2013-11-18 13:29:00,
2013-11-18 08:34:00,55.0,55.0,29.08,South,180,8.0,17.0,100,0.28,,,-99.99,Weather View 32 v70,2013-11-18 13:34:00,
2013-11-18 08:40:00,55.0,55.0,29.08,SSE,157,5.0,17.0,100,0.31,,,-99.99,Weather View 32 v70,2013-11-18 13:40:00,
2013-11-18 08:45:00,55.0,55.0,29.08,South,180,17.0,22.0,100,0.33,,,-99.99,Weather View 32 v70,2013-11-18 13:45:00,
2013-11-18 08:54:00,55.0,55.0,29.08,SE,135,7.0,22.0,100,0.30,,,-99.99,Weather View 32 v70,2013-11-18 13:54:00,
2013-11-18 08:59:00,56.0,56.0,29.08,South,180,15.0,22.0,100,0.28,,,-99.99,Weather View 32 v70,2013-11-18 13:59:00,
2013-11-18 09:09:00,56.0,56.0,29.08,ESE,112,6.0,22.0,100,0.26,,,-99.99,Weather View 32 v70,2013-11-18 14:09:00,
2013-11-18 09:14:00,56.0,56.0,29.09,South,180,4.0,22.0,100,0.25,,,-99.99,Weather View 32 v70,2013-11-18 14:14:00,
2013-11-18 09:19:00,56.0,56.0,29.09,South,180,7.0,22.0,100,0.22,,,-99.99,Weather View 32 v70,2013-11-18 14:19:00,
2013-11-18 09:29:00,56.0,56.0,29.08,SSW,202,19.0,22.0,100,0.15,,,-99.99,Weather View 32 v70,2013-11-18 14:29:00,
2013-11-18 09:39:00,57.0,57.0,29.09,SW,225,9.0,22.0,100,0.08,,,-99.99,Weather View 32 v70,2013-11-18 14:39:00,
2013-11-18 09:44:00,57.0,57.0,29.09,SW,225,7.0,22.0,100,0.07,,,-99.99,Weather View 32 v70,2013-11-18 14:44:00,
2013-11-18 09:49:00,57.0,57.0,29.08,SSW,202,9.0,22.0,100,0.06,,,-99.99,Weather View 32 v70,2013-11-18 14:49:00,
2013-11-18 09:54:00,57.0,57.0,29.08,West,270,2.0,22.0,100,0.04,,,-99.99,Weather View 32 v70,2013-11-18 14:54:00,
2013-11-18 09:59:00,57.0,57.0,29.08,SW,225,7.0,22.0,100,0.03,,,-99.99,Weather View 32 v70,2013-11-18 14:59:00,
2013-11-18 10:09:00,57.0,57.0,29.08,SW,225,9.0,22.0,100,0.02,,,-99.99,Weather View 32 v70,2013-11-18 15:09:00,
2013-11-18 10:14:00,57.0,57.0,29.08,SW,225,9.0,22.0,100,0.01,,,-99.99,Weather View 32 v70,2013-11-18 15:14:00,
2013-11-18 10:19:00,57.0,57.0,29.08,South,180,9.0,22.0,100,0.02,,,-99.99,Weather View 32 v70,2013-11-18 15:19:00,
2013-11-18 10:24:00,57.0,57.0,29.08,South,180,5.0,22.0,100,0.03,,,-99.99,Weather View 32 v70,2013-11-18 15:24:00,
2013-11-18 10:29:00,57.0,57.0,29.08,South,180,5.0,22.0,100,0.03,,,-99.99,Weather View 32 v70,2013-11-18 15:29:00,
2013-11-18 10:39:00,56.0,56.0,29.08,SSW,202,12.0,16.0,100,0.05,,,-99.99,Weather View 32 v70,2013-11-18 15:39:00,
2013-11-18 10:44:00,56.0,56.0,29.08,SW,225,6.0,15.0,100,0.05,,,-99.99,Weather View 32 v70,2013-11-18 15:44:00,
2013-11-18 10:49:00,56.0,56.0,29.08,SSW,202,9.0,19.0,100,0.05,,,-99.99,Weather View 32 v70,2013-11-18 15:49:00,
2013-11-18 10:59:00,56.0,56.0,29.08,South,180,10.0,20.0,100,0.05,,,-99.99,Weather View 32 v70,2013-11-18 15:59:00,
2013-11-18 11:04:00,56.0,56.0,29.07,South,180,7.0,20.0,100,0.05,,,-99.99,Weather View 32 v70,2013-11-18 16:04:00,
2013-11-18 11:09:00,56.0,56.0,29.07,SW,225,6.0,20.0,100,0.05,,,-99.99,Weather View 32 v70,2013-11-18 16:09:00,
2013-11-18 11:14:00,56.0,56.0,29.07,SW,225,6.0,20.0,100,0.05,,,-99.99,Weather View 32 v70,2013-11-18 16:14:00,
2013-11-18 11:19:00,56.0,56.0,29.07,West,270,7.0,20.0,100,0.04,,,-99.99,Weather View 32 v70,2013-11-18 16:19:00,
2013-11-18 11:24:00,57.0,57.0,29.08,WSW,247,8.0,20.0,100,0.03,,,-99.99,Weather View 32 v70,2013-11-18 16:24:00,
2013-11-18 11:34:00,57.0,57.0,29.07,SW,225,7.0,20.0,100,0.02,,,-99.99,Weather View 32 v70,2013-11-18 16:34:00,
2013-11-18 11:39:00,58.0,58.0,29.07,WSW,247,6.0,20.0,100,0.02,,,-99.99,Weather View 32 v70,2013-11-18 16:39:00,
2013-11-18 11:44:00,58.0,58.0,29.07,SW,225,12.0,24.0,100,0.01,,,-99.99,Weather View 32 v70,2013-11-18 16:44:00,
2013-11-18 11:49:00,58.0,58.0,29.08,SSW,202,10.0,24.0,100,0.01,,,-99.99,Weather View 32 v70,2013-11-18 16:49:00,
2013-11-18 11:59:00,59.0,59.0,29.08,SW,225,10.0,24.0,100,0.01,,,-99.99,Weather View 32 v70,2013-11-18 16:59:00,
2013-11-18 12:04:00,59.0,59.0,29.08,SSW,202,11.0,24.0,100,0.01,,,-99.99,Weather View 32 v70,2013-11-18 17:04:00,
2013-11-18 12:09:00,59.0,59.0,29.08,West,270,10.0,24.0,100,0.01,,,-99.99,Weather View 32 v70,2013-11-18 17:09:00,
2013-11-18 12:14:00,59.0,59.0,29.08,West,270,7.0,24.0,100,0.01,,,-99.99,Weather View 32 v70,2013-11-18 17:14:00,
2013-11-18 12:21:00,59.0,59.0,29.08,South,180,10.0,24.0,100,0.01,,,-99.99,Weather View 32 v70,2013-11-18 17:21:00,
2013-11-18 12:29:00,60.0,60.0,29.09,SW,225,8.0,24.0,100,0.01,,,-99.99,Weather View 32 v70,2013-11-18 17:29:00,
2013-11-18 12:34:00,60.0,60.0,29.09,West,270,10.0,24.0,100,0.01,,,-99.99,Weather View 32 v70,2013-11-18 17:34:00,
2013-11-18 12:39:00,60.0,60.0,29.09,West,270,12.0,24.0,100,0.00,,,-99.99,Weather View 32 v70,2013-11-18 17:39:00,
2013-11-18 12:44:00,60.0,60.0,29.10,SSW,202,7.0,24.0,100,0.00,,,-99.99,Weather View 32 v70,2013-11-18 17:44:00,
2013-11-18 12:54:00,60.0,60.0,29.10,WSW,247,3.0,22.0,100,0.00,,,-99.99,Weather View 32 v70,2013-11-18 17:54:00,
2013-11-18 12:59:00,60.0,60.0,29.10,West,270,3.0,22.0,100,0.00,,,-99.99,Weather View 32 v70,2013-11-18 17:59:00,
2013-11-18 13:04:00,60.0,60.0,29.10,West,270,13.0,22.0,100,0.00,,,-99.99,Weather View 32 v70,2013-11-18 18:04:00,
2013-11-18 13:09:00,60.0,60.0,29.10,WSW,247,6.0,22.0,100,0.00,,,-99.99,Weather View 32 v70,2013-11-18 18:09:00,
2013-11-18 13:19:00,59.0,58.1,29.10,West,270,9.0,22.0,97,0.00,,,-99.99,Weather View 32 v70,2013-11-18 18:19:00,
2013-11-18 13:24:00,59.0,57.9,29.10,SSW,202,5.0,22.0,96,0.00,,,-99.99,Weather View 32 v70,2013-11-18 18:24:00,
2013-11-18 13:29:00,60.0,58.6,29.10,SW,225,13.0,22.0,95,0.00,,,-99.99,Weather View 32 v70,2013-11-18 18:29:00,
2013-11-18 13:34:00,60.0,58.6,29.10,SW,225,9.0,22.0,95,0.00,,,-99.99,Weather View 32 v70,2013-11-18 18:34:00,
2013-11-18 13:39:00,60.0,57.0,29.10,SW,225,17.0,20.0,90,0.00,,,-99.99,Weather View 32 v70,2013-11-18 18:39:00,
2013-11-18 13:49:00,60.0,55.5,29.10,West,270,12.0,23.0,85,0.00,,,-99.99,Weather View 32 v70,2013-11-18 18:49:00,
2013-11-18 13:54:00,60.0,55.1,29.11,West,270,19.0,23.0,84,0.00,,,-99.99,Weather View 32 v70,2013-11-18 18:54:00,
2013-11-18 13:59:00,60.0,55.5,29.11,WSW,247,11.0,23.0,85,0.00,,,-99.99,Weather View 32 v70,2013-11-18 18:59:00,
2013-11-18 14:04:00,60.0,55.1,29.11,SW,225,10.0,23.0,84,0.00,,,-99.99,Weather View 32 v70,2013-11-18 19:04:00,
2013-11-18 14:14:00,60.0,55.5,29.11,West,270,7.0,23.0,85,0.00,,,-99.99,Weather View 32 v70,2013-11-18 19:14:00,
2013-11-18 14:19:00,60.0,55.1,29.11,West,270,8.0,23.0,84,0.00,,,-99.99,Weather View 32 v70,2013-11-18 19:19:00,
2013-11-18 14:24:00,61.0,56.1,29.12,WSW,247,3.0,23.0,84,0.00,,,-99.99,Weather View 32 v70,2013-11-18 19:24:00,
2013-11-18 14:29:00,60.0,55.1,29.12,West,270,8.0,23.0,84,0.00,,,-99.99,Weather View 32 v70,2013-11-18 19:29:00,
2013-11-18 14:34:00,60.0,55.5,29.12,West,270,11.0,23.0,85,0.00,,,-99.99,Weather View 32 v70,2013-11-18 19:34:00,
2013-11-18 14:44:00,60.0,55.5,29.12,SW,225,10.0,23.0,85,0.00,,,-99.99,Weather View 32 v70,2013-11-18 19:44:00,
2013-11-18 14:49:00,60.0,56.1,29.13,WSW,247,6.0,21.0,87,0.00,,,-99.99,Weather View 32 v70,2013-11-18 19:49:00,
2013-11-18 14:54:00,61.0,55.1,29.13,WSW,247,10.0,21.0,81,0.00,,,-99.99,Weather View 32 v70,2013-11-18 19:54:00,
2013-11-18 14:59:00,60.0,54.1,29.14,WSW,247,7.0,20.0,81,0.00,,,-99.99,Weather View 32 v70,2013-11-18 19:59:00,
2013-11-18 15:04:00,60.0,53.8,29.14,West,270,6.0,17.0,80,0.00,,,-99.99,Weather View 32 v70,2013-11-18 20:04:00,
2013-11-18 15:09:00,59.0,53.5,29.14,West,270,3.0,17.0,82,0.00,,,-99.99,Weather View 32 v70,2013-11-18 20:09:00,
2013-11-18 15:19:00,59.0,53.2,29.14,SW,225,6.0,18.0,81,0.00,,,-99.99,Weather View 32 v70,2013-11-18 20:19:00,
2013-11-18 15:24:00,59.0,53.2,29.14,SW,225,3.0,18.0,81,0.00,,,-99.99,Weather View 32 v70,2013-11-18 20:24:00,
2013-11-18 15:29:00,59.0,52.1,29.13,WSW,247,10.0,22.0,78,0.00,,,-99.99,Weather View 32 v70,2013-11-18 20:29:00,
2013-11-18 15:34:00,58.0,51.5,29.13,SW,225,6.0,22.0,79,0.00,,,-99.99,Weather View 32 v70,2013-11-18 20:34:00,
2013-11-18 15:44:00,58.0,52.2,29.13,SW,225,6.0,22.0,81,0.00,,,-99.99,Weather View 32 v70,2013-11-18 20:44:00,
2013-11-18 15:49:00,58.0,52.5,29.14,SW,225,4.0,22.0,82,0.00,,,-99.99,Weather View 32 v70,2013-11-18 20:49:00,
2013-11-18 15:54:00,57.0,51.2,29.14,WSW,247,6.0,22.0,81,0.00,,,-99.99,Weather View 32 v70,2013-11-18 20:54:00,
2013-11-18 15:59:00,57.0,51.9,29.13,West,270,3.0,22.0,83,0.00,,,-99.99,Weather View 32 v70,2013-11-18 20:59:00,
2013-11-18 16:09:00,56.0,52.5,29.13,SW,225,4.0,22.0,88,0.00,,,-99.99,Weather View 32 v70,2013-11-18 21:09:00,
2013-11-18 16:14:00,55.0,52.1,29.13,West,270,2.0,22.0,90,0.00,,,-99.99,Weather View 32 v70,2013-11-18 21:14:00,
2013-11-18 16:19:00,55.0,52.4,29.13,SW,225,4.0,22.0,91,0.00,,,-99.99,Weather View 32 v70,2013-11-18 21:19:00,
2013-11-18 16:24:00,55.0,53.0,29.14,West,270,0.0,22.0,93,0.00,,,-99.99,Weather View 32 v70,2013-11-18 21:24:00,
2013-11-18 16:29:00,54.0,54.0,29.14,WSW,247,1.0,22.0,100,0.00,,,-99.99,Weather View 32 v70,2013-11-18 21:29:00,
2013-11-18 16:39:00,52.0,52.0,29.14,West,270,1.0,15.0,100,0.00,,,-99.99,Weather View 32 v70,2013-11-18 21:39:00,
2013-11-18 16:44:00,52.0,52.0,29.14,West,270,3.0,10.0,100,0.00,,,-99.99,Weather View 32 v70,2013-11-18 21:44:00,
2013-11-18 16:49:00,51.0,51.0,29.14,WNW,292,1.0,10.0,100,0.00,,,-99.99,Weather View 32 v70,2013-11-18 21:49:00,
2013-11-18 16:54:00,51.0,51.0,29.14,West,270,0.0,10.0,100,0.00,,,-99.99,Weather View 32 v70,2013-11-18 21:54:00,
2013-11-18 17:04:00,51.0,51.0,29.14,SW,225,0.0,10.0,100,0.00,,,-99.99,Weather View 32 v70,2013-11-18 22:04:00,
2013-11-18 17:09:00,51.0,51.0,29.14,SW,225,0.0,10.0,100,0.00,,,-99.99,Weather View 32 v70,2013-11-18 22:09:00,
2013-11-18 17:14:00,50.0,50.0,29.14,SW,225,0.0,7.0,100,0.00,,,-99.99,Weather View 32 v70,2013-11-18 22:14:00,
2013-11-18 17:19:00,47.0,47.0,29.14,NNW,337,0.0,7.0,100,0.00,,,-99.99,Weather View 32 v70,2013-11-18 22:19:00,
2013-11-18 17:24:00,46.0,46.0,29.14,North,360,0.0,5.0,100,0.00,,,-99.99,Weather View 32 v70,2013-11-18 22:24:00,
2013-11-18 17:34:00,46.0,46.0,29.13,East,90,0.0,5.0,100,0.00,,,-99.99,Weather View 32 v70,2013-11-18 22:34:00,
2013-11-18 17:39:00,46.0,46.0,29.14,East,90,2.0,5.0,100,0.00,,,-99.99,Weather View 32 v70,2013-11-18 22:39:00,
2013-11-18 17:44:00,46.0,46.0,29.13,East,90,0.0,5.0,100,0.00,,,-99.99,Weather View 32 v70,2013-11-18 22:44:00,
2013-11-18 17:49:00,45.0,45.0,29.14,East,90,0.0,4.0,100,0.00,,,-99.99,Weather View 32 v70,2013-11-18 22:49:00,
2013-11-18 17:59:00,44.0,44.0,29.14,East,90,0.0,3.0,100,0.00,,,-99.99,Weather View 32 v70,2013-11-18 22:59:00,
2013-11-18 18:04:00,44.0,44.0,29.14,East,90,0.0,3.0,100,0.00,,,-99.99,Weather View 32 v70,2013-11-18 23:04:00,
2013-11-18 18:09:00,43.0,43.0,29.14,North,360,0.0,3.0,100,0.00,,,-99.99,Weather View 32 v70,2013-11-18 23:09:00,
2013-11-18 18:14:00,43.0,43.0,29.13,North,360,0.0,3.0,100,0.00,,,-99.99,Weather View 32 v70,2013-11-18 23:14:00,
2013-11-18 18:24:00,43.0,43.0,29.13,NW,315,0.0,3.0,100,0.00,,,-99.99,Weather View 32 v70,2013-11-18 23:24:00,
2013-11-18 18:29:00,43.0,43.0,29.13,NW,315,0.0,3.0,100,0.00,,,-99.99,Weather View 32 v70,2013-11-18 23:29:00,
2013-11-18 18:34:00,42.0,42.0,29.13,NW,315,0.0,3.0,100,0.00,,,-99.99,Weather View 32 v70,2013-11-18 23:34:00,
2013-11-18 18:39:00,42.0,42.0,29.14,NW,315,0.0,3.0,100,0.00,,,-99.99,Weather View 32 v70,2013-11-18 23:39:00,
2013-11-18 18:44:00,43.0,43.0,29.14,NW,315,0.0,3.0,100,0.00,,,-99.99,Weather View 32 v70,2013-11-18 23:44:00,
2013-11-18 18:54:00,43.0,43.0,29.14,North,360,0.0,3.0,100,0.00,,,-99.99,Weather View 32 v70,2013-11-18 23:54:00,
2013-11-18 18:59:00,43.0,43.0,29.14,West,270,0.0,3.0,100,0.00,,,-99.99,Weather View 32 v70,2013-11-18 23:59:00,
2013-11-18 19:04:00,43.0,43.0,29.14,WNW,292,0.0,3.0,100,0.00,,,-99.99,Weather View 32 v70,2013-11-19 00:04:00,
2013-11-18 19:09:00,44.0,44.0,29.14,NW,315,0.0,3.0,100,0.00,,,-99.99,Weather View 32 v70,2013-11-19 00:09:00,
2013-11-18 19:19:00,43.0,43.0,29.14,NW,315,1.0,3.0,100,0.00,,,-99.99,Weather View 32 v70,2013-11-19 00:19:00,
2013-11-18 19:25:00,43.0,43.0,29.14,NW,315,0.0,3.0,100,0.00,,,-99.99,Weather View 32 v70,2013-11-19 00:25:00,
2013-11-18 19:34:00,43.0,43.0,29.14,West,270,0.0,3.0,100,0.00,,,-99.99,Weather View 32 v70,2013-11-19 00:34:00,
2013-11-18 19:39:00,42.0,42.0,29.14,WSW,247,0.0,3.0,100,0.00,,,-99.99,Weather View 32 v70,2013-11-19 00:39:00,
2013-11-18 19:49:00,41.0,41.0,29.14,SW,225,0.0,3.0,100,0.00,,,-99.99,Weather View 32 v70,2013-11-19 00:49:00,
2013-11-18 19:54:00,41.0,41.0,29.13,SW,225,0.0,3.0,100,0.00,,,-99.99,Weather View 32 v70,2013-11-19 00:54:00,
2013-11-18 19:59:00,41.0,41.0,29.13,SW,225,0.0,3.0,100,0.00,,,-99.99,Weather View 32 v70,2013-11-19 00:59:00,
2013-11-18 20:04:00,40.0,40.0,29.13,SW,225,0.0,3.0,100,0.00,,,-99.99,Weather View 32 v70,2013-11-19 01:04:00,
2013-11-18 20:14:00,39.0,39.0,29.13,North,360,0.0,3.0,100,0.00,,,-99.99,Weather View 32 v70,2013-11-19 01:14:00,
2013-11-18 20:19:00,39.0,39.0,29.12,North,360,0.0,3.0,100,0.00,,,-99.99,Weather View 32 v70,2013-11-19 01:19:00,
2013-11-18 20:24:00,38.0,38.0,29.12,North,360,0.0,1.0,100,0.00,,,-99.99,Weather View 32 v70,2013-11-19 01:24:00,
2013-11-18 20:29:00,38.0,38.0,29.12,North,360,0.0,0.0,100,0.00,,,-99.99,Weather View 32 v70,2013-11-19 01:29:00,
2013-11-18 20:34:00,38.0,38.0,29.12,North,360,0.0,0.0,100,0.00,,,-99.99,Weather View 32 v70,2013-11-19 01:34:00,
2013-11-18 20:44:00,37.0,37.0,29.11,North,360,0.0,0.0,100,0.00,,,-99.99,Weather View 32 v70,2013-11-19 01:44:00,
2013-11-18 20:49:00,37.0,37.0,29.11,North,360,0.0,0.0,100,0.00,,,-99.99,Weather View 32 v70,2013-11-19 01:49:00,
2013-11-18 20:54:00,36.0,36.0,29.10,North,360,0.0,2.0,100,0.00,,,-99.99,Weather View 32 v70,2013-11-19 01:54:00,
2013-11-18 21:04:00,35.0,35.0,29.10,NW,315,3.0,3.0,100,0.00,,,-99.99,Weather View 32 v70,2013-11-19 02:04:00,
2013-11-18 21:09:00,37.0,37.0,29.09,WNW,292,0.0,4.0,100,0.00,,,-99.99,Weather View 32 v70,2013-11-19 02:09:00,
2013-11-18 21:14:00,35.0,35.0,29.09,West,270,0.0,4.0,100,0.00,,,-99.99,Weather View 32 v70,2013-11-19 02:14:00,
2013-11-18 21:24:00,35.0,35.0,29.09,West,270,0.0,4.0,100,0.00,,,-99.99,Weather View 32 v70,2013-11-19 02:24:00,
2013-11-18 21:29:00,35.0,35.0,29.09,NW,315,7.0,8.0,100,0.00,,,-99.99,Weather View 32 v70,2013-11-19 02:29:00,
2013-11-18 21:34:00,39.0,39.0,29.10,WNW,292,10.0,14.0,100,0.00,,,-99.99,Weather View 32 v70,2013-11-19 02:34:00,
2013-11-18 21:39:00,43.0,43.0,29.09,NW,315,6.0,14.0,100,0.00,,,-99.99,Weather View 32 v70,2013-11-19 02:39:00,
2013-11-18 21:44:00,44.0,44.0,29.09,WNW,292,7.0,14.0,100,0.00,,,-99.99,Weather View 32 v70,2013-11-19 02:44:00,
2013-11-18 21:49:00,44.0,44.0,29.09,WNW,292,7.0,15.0,100,0.00,,,-99.99,Weather View 32 v70,2013-11-19 02:49:00,
2013-11-18 21:54:00,45.0,45.0,29.09,West,270,7.0,15.0,100,0.00,,,-99.99,Weather View 32 v70,2013-11-19 02:54:00,
2013-11-18 22:04:00,45.0,45.0,29.09,West,270,2.0,15.0,100,0.00,,,-99.99,Weather View 32 v70,2013-11-19 03:04:00,
2013-11-18 22:09:00,45.0,45.0,29.10,NW,315,5.0,15.0,100,0.00,,,-99.99,Weather View 32 v70,2013-11-19 03:09:00,
2013-11-18 22:14:00,45.0,45.0,29.11,West,270,6.0,15.0,100,0.00,,,-99.99,Weather View 32 v70,2013-11-19 03:14:00,
2013-11-18 22:24:00,45.0,45.0,29.12,West,270,0.0,15.0,100,0.00,,,-99.99,Weather View 32 v70,2013-11-19 03:24:00,
2013-11-18 22:29:00,45.0,45.0,29.12,WNW,292,2.0,15.0,100,0.00,,,-99.99,Weather View 32 v70,2013-11-19 03:29:00,
2013-11-18 22:34:00,45.0,45.0,29.12,WSW,247,0.0,15.0,100,0.00,,,-99.99,Weather View 32 v70,2013-11-19 03:34:00,
2013-11-18 22:39:00,45.0,45.0,29.12,SW,225,1.0,15.0,100,0.00,,,-99.99,Weather View 32 v70,2013-11-19 03:39:00,
2013-11-18 22:44:00,44.0,44.0,29.13,West,270,0.0,15.0,100,0.00,,,-99.99,Weather View 32 v70,2013-11-19 03:44:00,
2013-11-18 22:54:00,44.0,44.0,29.13,West,270,0.0,15.0,100,0.00,,,-99.99,Weather View 32 v70,2013-11-19 03:54:00,
2013-11-18 22:59:00,44.0,44.0,29.14,West,270,0.0,13.0,100,0.00,,,-99.99,Weather View 32 v70,2013-11-19 03:59:00,
2013-11-18 23:09:00,43.0,43.0,29.13,SW,225,0.0,9.0,100,0.00,,,-99.99,Weather View 32 v70,2013-11-19 04:09:00,
2013-11-18 23:14:00,43.0,43.0,29.13,WNW,292,1.0,9.0,100,0.00,,,-99.99,Weather View 32 v70,2013-11-19 04:14:00,
2013-11-18 23:19:00,44.0,44.0,29.13,West,270,4.0,12.0,100,0.00,,,-99.99,Weather View 32 v70,2013-11-19 04:19:00,
2013-11-18 23:24:00,45.0,45.0,29.13,West,270,3.0,12.0,100,0.00,,,-99.99,Weather View 32 v70,2013-11-19 04:24:00,
2013-11-18 23:29:00,44.0,44.0,29.13,WNW,292,4.0,12.0,100,0.00,,,-99.99,Weather View 32 v70,2013-11-19 04:29:00,
2013-11-18 23:39:00,44.0,44.0,29.13,WSW,247,5.0,12.0,100,0.00,,,-99.99,Weather View 32 v70,2013-11-19 04:39:00,
2013-11-18 23:44:00,43.0,43.0,29.13,West,270,3.0,12.0,100,0.00,,,-99.99,Weather View 32 v70,2013-11-19 04:44:00,
2013-11-18 23:49:00,43.0,43.0,29.13,West,270,2.0,12.0,100,0.00,,,-99.99,Weather View 32 v70,2013-11-19 04:49:00,
2013-11-18 23:54:00,43.0,43.0,29.13,West,270,4.0,12.0,100,0.00,,,-99.99,Weather View 32 v70,2013-11-19 04:54:00,